Weather History for KMVL - September, 2012

Change the Weather History Date:

Thursday, September 27, 2012

  Actual Average Record
Temperature  
Mean Temperature 47 °F 53 °F  
Max Temperature 59 °F 65 °F 80 °F (2007)
Min Temperature 35 °F 41 °F 34 °F (1997)
Degree Days  
Heating Degree Days 18 12  
Month to date heating degree days 200 199  
Since 1 July heating degree days 242 294  
Cooling Degree Days 0 0  
Month to date cooling degree days 24 13  
Year to date cooling degree days 408 260  
Moisture  
Dew Point 41 °F    
Average Humidity 72    
Maximum Humidity 100    
Minimum Humidity 43    
Precipitation  
Precipitation 0.00 in 0.12 in 1.95 in (2002)
Month to date precipitation 2.99 3.03  
Year to date precipitation 13.21 26.79  
Sea Level Pressure  
Sea Level Pressure 30.22 in    
Wind  
Wind Speed 3 mph (NNW)    
Max Wind Speed 14 mph    
Max Gust Speed 20 mph    
Visibility 6 miles    
Events Fog    
T = Trace of Precipitation, MM = Missing Value Source: NWS Daily Summary

Daily Weather History Graph

Daily Weather History Graph

Search for Another Location

Airport or City:

Trip Planner

Search our weather history database for the weather conditions in past years. The results will help you decide how hot, cold, wet, or windy it might be!

Date:

Astronomy

Sep. 27, 2012 Rise Set
Actual Time 6:44 AM EDT 6:37 PM EDT
Civil Twilight 6:15 AM EDT 7:06 PM EDT
Nautical Twilight 5:41 AM EDT 7:40 PM EDT
Astronomical Twilight 5:06 AM EDT 8:14 PM EDT
Moon 5:10 PM EDT (9/27) 4:05 AM EDT (9/27)
Length of Visible Light 12h 51m
Length of Day
11h 53m
Waxing Gibbous, 94% of the Moon is Illuminated
Sep 27
Waxing Gibbous
Sep 29
Full
Oct 8
Last Quarter
Oct 15
New
Oct 21
First Quarter

Hourly Weather History & Observations

Time (EDT) Temp. Dew Point Humidity Pressure Visibility Wind Dir Wind Speed Gust Speed Precip Events Conditions
12:07 AM 55.4 °F 51.8 °F 88% 30.07 in 9.0 mi Calm Calm - N/A   Overcast
12:20 AM 55.4 °F 53.6 °F 94% 30.07 in 9.0 mi Calm Calm - N/A   Overcast
12:54 AM 55.0 °F 52.0 °F 89% 30.08 in 9.0 mi North 5.8 mph - N/A   Overcast
1:19 AM 53.6 °F 46.4 °F 77% 30.09 in 10.0 mi NNE 8.1 mph - N/A   Overcast
1:54 AM 52.0 °F 46.9 °F 83% 30.10 in 10.0 mi Calm Calm - N/A   Overcast
2:54 AM 50.0 °F 46.9 °F 89% 30.11 in 9.0 mi Calm Calm - N/A   Overcast
3:54 AM 46.0 °F 44.1 °F 93% 30.12 in 9.0 mi Calm Calm - N/A   Clear
4:54 AM 46.0 °F 44.1 °F 93% 30.15 in 10.0 mi Calm Calm - N/A   Overcast
5:01 AM 46.4 °F 44.6 °F 93% 30.14 in 10.0 mi Calm Calm - N/A   Overcast
5:28 AM 46.4 °F 44.6 °F 93% 30.15 in 1.0 mi Calm Calm - N/A   Mostly Cloudy
5:35 AM 44.6 °F 42.8 °F 93% 30.16 in 0.5 mi Calm Calm - N/A Fog Fog
5:42 AM 44.6 °F 42.8 °F 93% 30.16 in 1.0 mi Calm Calm - N/A   Mostly Cloudy
5:54 AM 44.1 °F 43.0 °F 96% 30.17 in 0.8 mi Calm Calm - N/A   Mist
6:54 AM 43.0 °F 42.1 °F 97% 30.21 in 0.2 mi Calm Calm - N/A Fog Fog
7:54 AM 44.1 °F 43.0 °F 96% 30.23 in 0.2 mi Calm Calm - N/A Fog Fog
8:54 AM 45.0 °F 44.1 °F 97% 30.25 in 1.2 mi Calm Calm - N/A   Overcast
9:07 AM 46.4 °F 44.6 °F 93% 30.23 in 3.0 mi Calm Calm - N/A   Overcast
9:34 AM 48.2 °F 46.4 °F 93% 30.24 in 10.0 mi Calm Calm - N/A   Scattered Clouds
9:54 AM 50.0 °F 42.1 °F 74% 30.26 in 10.0 mi NE 4.6 mph - N/A   Clear
10:54 AM 54.0 °F 37.9 °F 55% 30.27 in 10.0 mi NNW 10.4 mph - N/A   Partly Cloudy
11:54 AM 55.9 °F 37.0 °F 49% 30.26 in 10.0 mi NNW 13.8 mph 17.3 mph N/A   Partly Cloudy
12:54 PM 57.0 °F 37.9 °F 49% 30.25 in 10.0 mi NW 8.1 mph - N/A   Scattered Clouds
1:54 PM 57.0 °F 36.0 °F 45% 30.25 in 10.0 mi NW 9.2 mph - N/A   Partly Cloudy
2:54 PM 59.0 °F 37.0 °F 44% 30.25 in 10.0 mi Variable 6.9 mph - N/A   Mostly Cloudy
3:54 PM 59.0 °F 37.9 °F 46% 30.24 in 10.0 mi NNW 6.9 mph - N/A   Mostly Cloudy
5:54 PM 53.1 °F 39.0 °F 59% 30.26 in 10.0 mi WNW 3.5 mph - N/A   Clear
6:54 PM 48.0 °F 39.9 °F 74% 30.28 in 10.0 mi Calm Calm - N/A   Clear
7:54 PM 44.1 °F 39.9 °F 85% 30.30 in 10.0 mi Calm Calm - N/A   Clear
8:54 PM 42.1 °F 39.0 °F 89% 30.30 in 10.0 mi Calm Calm - N/A   Clear
9:54 PM 37.9 °F 36.0 °F 93% 30.31 in 10.0 mi Calm Calm - N/A   Clear
10:54 PM 37.9 °F 36.0 °F 93% 30.30 in 10.0 mi Calm Calm - N/A   Clear
11:16 PM 35.6 °F 35.6 °F 100% 30.28 in 2.5 mi Calm Calm - N/A   Scattered Clouds
11:19 PM 35.6 °F 33.8 °F 93% 30.28 in 1.0 mi Calm Calm - N/A   Mist
11:27 PM 37.4 °F 35.6 °F 93% 30.28 in 0.5 mi Calm Calm - N/A Fog Fog
11:41 PM 35.6 °F 35.6 °F 100% 30.28 in 1.2 mi Calm Calm - N/A   Overcast
11:45 PM 35.6 °F 35.6 °F 100% 30.28 in 3.0 mi Calm Calm - N/A   Mostly Cloudy
11:54 PM 35.1 °F 34.0 °F 96% 30.30 in 1.8 mi Calm Calm - N/A   Overcast
11:58 PM 35.6 °F 33.8 °F 93% 30.29 in 0.8 mi Calm Calm - N/A   Mist